Regional Weather Roundup
Issued by NWS

Home | Current Version | Previous Version | Graphics & Text | Print | Product List | Glossary On
Versions: 1 2 3 4 5 6 7 8 9 10 11 12 13 14 15 16 17 18 19 20 21 22 23 24 25 26 27 28 29 30 31 32 33 34 35 36 37 38 39 40 41 42 43 44 45 46 47 48
000
ASUS45 KCYS 271110
RWRWY

WYOMING REGIONAL WEATHER ROUNDUP
NATIONAL WEATHER SERVICE CHEYENNE WY
500 AM MDT THU AUG 27 2015

NOTE:  "FAIR" INDICATES FEW OR NO CLOUDS BELOW 12,000 FEET
WITH NO SIGNIFICANT WEATHER AND/OR OBSTRUCTIONS TO VISIBILITY.

WYZ001-271200-
YELLOWSTONE NATIONAL PARK

CITY           SKY/WX    TMP DP  RH WIND       PRES   REMARKS
LK YELLOWSTONE   N/A     40  37  89 CALM      30.41S
W YELLOWSTONE  NOT AVBL

$$
WYZ002>013-054>058-071-098>099-271200-
NORTHERN WYOMING

CITY           SKY/WX    TMP DP  RH WIND       PRES   REMARKS
JACKSON        CLOUDY    52  50  93 CALM      30.34R VSB 1
CODY           FAIR      57  48  72 SW8       30.17F
GREYBULL       LGT RAIN  63  57  81 SE6       30.11F
WORLAND        MOCLDY    61  59  93 SE6       30.14F
SHERIDAN       LGT RAIN  64  55  72 SE14      30.11R
BUFFALO        LGT RAIN  67  50  54 N8        30.17R
GILLETTE       MOCLDY    72  47  40 N16       30.09R
HULETT         CLOUDY    70  54  56 CALM      30.08R
NEWCASTLE      FAIR      63  54  72 CALM      30.10R

$$
WYZ014>020-022>026-101>103-271200-
CENTRAL WYOMING

CITY           SKY/WX    TMP DP  RH WIND       PRES   REMARKS
BIG PINEY      CLOUDY    52  49  89 N7        30.34F
PINEDALE       CLOUDY    52  52 100 NW8       30.35S
DUBOIS         FAIR      46  45  93 NW10      30.31F
LANDER         CLOUDY    59  54  83 SE9       30.21S
RIVERTON       CLOUDY    59  53  80 SW7       30.22S
CASPER         CLOUDY    65  47  52 SW7       30.17S
DOUGLAS        MOCLDY    70  47  43 W22G28    30.12R

$$
WYZ021-027>030-104>119-271200-
SOUTHERN WYOMING

CITY           SKY/WX    TMP DP  RH WIND       PRES   REMARKS
EVANSTON       FAIR      54  52  93 SE3       30.36S FOG
KEMMERER       CLOUDY    54  52  94 W5        30.36S
FORT BRIDGER   DRIZZLE   55  55 100 SW5       30.38S
ROCK SPRINGS   CLOUDY    56  54  93 SW6       30.30S
DIXON          LGT RAIN  59  57  92 CALM      30.32S
RAWLINS        CLOUDY    57  54  89 SW7       30.30S
SARATOGA       CLOUDY    55  54  94 CALM      30.32S
LARAMIE        CLOUDY    56  49  77 CALM      30.29F
CHEYENNE       FAIR      66  50  56 NW15G24   30.18F
TORRINGTON     FAIR      67  61  81 N3        30.05S
PINE BLUFFS    FAIR      68  50  52 NW16G22   30.10S

$$



USA.gov is the U.S. government's official web portal to all federal, state and local government web resources and services.